Other Public Products
Issued by NWS Charleston, SC

Current Version | Previous Version | Graphics & Text | Print | Product List | Glossary On
Versions: 1 2 3 4 5 6 7 8 9 10 11 12 13 14 15 16 17 18 19 20 21 22 23 24 25 26 27 28 29 30 31 32 33 34 35 36 37 38 39 40 41 42 43 44 45 46 47 48 49 50
362 FPUS82 KCHS 220627 OPUCHS TEST...KCHS/KSAV Gateway Observations...TEST National Weather Service Charleston SC 200 AM EDT SAT JUL 22 2017 NOTE: "fair" indicates few or no clouds below 12,000 feet with no significant weather and/or obstructions to visibility. SCZ050-WAZ558-NCZ071-TXZ119-213-PAZ071-DCZ001-FLZ074-172-MI076- NYZ176-178-MAZ016-IL014-TNZ027-NJZ106-GAZ044-MD014-220700- ...Gateway Observations for Charleston International... CITY SKY/WX TMP DP RH WIND PRES REMARKS Chas Airport PTCLDY 77 74 90 S6 30.01F 6HR MIN TEMP: 77; 6HR MAX TEMP: 83; Seattle MOCLDY 64 52 64 W5 30.15S 6HR MIN TEMP: 64; 6HR MAX TEMP: 78; Charlotte PTCLDY 80 70 71 SW6 30.00F 6HR MIN TEMP: 80; 6HR MAX TEMP: 90; Dallas DFW CLEAR 87 72 60 S10 29.93F HX 93 6HR MIN TEMP: 86; 6HR MAX TEMP: 97; Dallas Love PTCLDY 87 70 56 S14 29.94F HX 92 6HR MIN TEMP: 87; 6HR MAX TEMP: 96; Philladelphia MOCLDY 83 74 74 SW5 29.89S 6HR MIN TEMP: 82; 6HR MAX TEMP: 90; Wash National CLOUDY 83 73 72 N10 29.89F 6HR MIN TEMP: 83; 6HR MAX TEMP: 91; Baltimore MOCLDY 80 76 87 CALM 29.88F 6HR MIN TEMP: 78; 6HR MAX TEMP: 87; 6HR PCP: TRACE; Miami MOCLDY 77 74 90 CALM 30.07F 6HR MIN TEMP: 77; 6HR MAX TEMP: 82; Detroit CLOUDY 78 72 81 SE6 29.91F 6HR MIN TEMP: 78; 6HR MAX TEMP: 83; 6HR PCP: TRACE; Newark MOCLDY 83 71 67 W9 29.86S 6HR MIN TEMP: 83; 6HR MAX TEMP: 88; Laguardia MOCLDY 84 72 67 NW12 29.85S 6HR MIN TEMP: 84; 6HR MAX TEMP: 92; J F K MOCLDY 81 75 82 SW9 29.87F 6HR MIN TEMP: 80; 6HR MAX TEMP: 90; Boston Logan PTCLDY 77 59 53 W12 29.83R 6HR MIN TEMP: 77; 6HR MAX TEMP: 87; Ft. Lauderdale PTCLDY 78 75 90 CALM 30.06F 6HR MIN TEMP: 77; 6HR MAX TEMP: 81; Chicago O`Hare TSTM 73 70 90 SW5 29.85S FOG 6HR MIN TEMP: 73; 6HR MAX TEMP: 80; 6HR PCP: 0.49; Chicago Midway TSTM 74 72 93 S10 29.84F FOG 6HR MIN TEMP: 73; 6HR MAX TEMP: 83; 6HR PCP: 1.20; Houston Bush PTCLDY 82 75 79 S3 29.97F 6HR MIN TEMP: 81; 6HR MAX TEMP: 85; 6HR PCP: 0.36; Houston Hobby MOCLDY 83 75 77 SW5 29.97S HX 90 6HR MIN TEMP: 82; 6HR MAX TEMP: 88; Nashville CLEAR 80 75 84 S3 29.98F 6HR MIN TEMP: 80; 6HR MAX TEMP: 93; Atlanta PTCLDY 78 71 79 W6 30.01F 6HR MIN TEMP: 78; 6HR MAX TEMP: 90; $$ GAZ044-118-TXZ119-213-NCZ071-DCZ001-MDZ014-506-PAZ021-071-NJZ106- NYZ176-178-MAZ106-OHZ011-021-055-MIZ076-KYZ091-ILZ014-INZ047- MNZ060-ONZ431-220700- ...Gateway Observations for Savannah International... CITY SKY/WX TMP DP RH WIND PRES REMARKS Savannah Arpt CLEAR N/A N/A N/A CALM 30.02F Atlanta PTCLDY 78 71 79 W6 30.01F 6HR MIN TEMP: 78; 6HR MAX TEMP: 90; Charlotte PTCLDY 80 70 71 SW6 30.00F 6HR MIN TEMP: 80; 6HR MAX TEMP: 90; Dallas DFW CLEAR 87 72 60 S10 29.93F HX 93 6HR MIN TEMP: 86; 6HR MAX TEMP: 97; Houston Bush PTCLDY 82 75 79 S3 29.97F 6HR MIN TEMP: 81; 6HR MAX TEMP: 85; 6HR PCP: 0.36; Wash National CLOUDY 83 73 72 N10 29.89F 6HR MIN TEMP: 83; 6HR MAX TEMP: 91; Wash Dulles MOCLDY 79 70 74 NW5 29.91S 6HR MIN TEMP: 79; 6HR MAX TEMP: 86; Baltimore MOCLDY 80 76 87 CALM 29.88F 6HR MIN TEMP: 78; 6HR MAX TEMP: 87; 6HR PCP: TRACE; Philadelphia MOCLDY 83 74 74 SW5 29.89S 6HR MIN TEMP: 82; 6HR MAX TEMP: 90; Newark MOCLDY 83 71 67 W9 29.86S 6HR MIN TEMP: 83; 6HR MAX TEMP: 88; Laguardia MOCLDY 84 72 67 NW12 29.85S 6HR MIN TEMP: 84; 6HR MAX TEMP: 92; J F K MOCLDY 81 75 82 SW9 29.87F 6HR MIN TEMP: 80; 6HR MAX TEMP: 90; Boston PTCLDY 77 59 53 W12 29.83R 6HR MIN TEMP: 77; 6HR MAX TEMP: 87; Pittsburg MOCLDY 75 73 93 SW5 29.99F 6HR MIN TEMP: 75; 6HR MAX TEMP: 84; Akron CLOUDY 77 70 79 SE8 29.97F 6HR MIN TEMP: 73; 6HR MAX TEMP: 86; Cleveland CLOUDY 76 68 76 SE5 29.97F 6HR MIN TEMP: 74; 6HR MAX TEMP: 82; Cincinnati CLOUDY 76 74 93 CALM 29.94F 6HR MIN TEMP: 73; 6HR MAX TEMP: 81; 6HR PCP: 0.03; Columbus CLEAR 71 71 100 S3 29.94F Detroit CLOUDY 78 72 81 SE6 29.91F 6HR MIN TEMP: 78; 6HR MAX TEMP: 83; 6HR PCP: TRACE; Chicago O`Hare TSTM 73 70 90 SW5 29.85S FOG 6HR MIN TEMP: 73; 6HR MAX TEMP: 80; 6HR PCP: 0.49; Minneapolis CLOUDY 72 64 76 NE7 29.82F 6HR MIN TEMP: 72; 6HR MAX TEMP: 82; Indianapolis LGT RAIN 78 75 90 W5 29.90S 6HR MIN TEMP: 78; 6HR MAX TEMP: 87; 6HR PCP: 0.09; Toronto Canada MOCLDY 72 57 60 VRB2 29.92F $$

USA.gov is the U.S. government's official web portal to all federal, state and local government web resources and services.